User: anonymous   Login
Location: Betra
(48.4113°N, 8.6634°E)
Time: 05:17:40
(UTC+00:00)
Language:

DELTA 2 R/B (1) - Orbit

View from above orbital plane
View from above orbital plane
View from above satellite
View from above satellite

Ground track
Ground track

The orbit data is extracted from the following two-line orbital elements,

1 27665U 03005C   24205.36723152  .00000390  00000-0  18564-3 0  9995
2 27665  39.5737 222.9948 0008906 211.5887 163.5810 14.29048175121732
Epoch (UTC): 23 July 2024 08:48:48
Eccentricity: 0.0008906
inclination: 39.5737°
perigee height: 788 km
apogee height: 801 km
right ascension of ascending node: 222.9948°
argument of perigee: 211.5887°
revolutions per day: 14.29048175
mean anomaly at epoch: 163.5810°
orbit number at epoch: 12173

The dashed part of the orbit path shows where the satellite is in the earth's shadow,  

DLR